E1763 Weather Reports


time (UTC)temp
C
wind
direction
speed
KPH
gust
KPH
rain 1hr
cm
rain 24hr
cm
rain mn
cm
humidity
%
barometer
mb
20260510151505 11 20 0.0 0.0 0.00 0.03 0.03 97 1010.7
20260510150004 11 32 0.0 0.0 0.00 0.03 0.03 97 1010.5
20260510144502 10 19 0.0 0.0 0.00 0.03 0.03 97 1010.5
20260510143002 10 340 0.0 0.0 0.00 0.03 0.03 97 1010.4
20260510141702 10 79 0.0 0.0 0.00 0.03 0.03 97 1010.2
20260510140059 10 18 0.0 0.0 0.00 0.03 0.03 97 1010.0
20260510134605 10 53 0.0 0.0 0.00 0.03 0.03 96 1009.9
20260510133058 10 5 0.0 0.0 0.00 0.03 0.03 96 1009.8
20260510131559 10 128 0.0 0.0 0.00 0.03 0.03 96 1009.7
20260510130056 10 5 0.0 0.0 0.00 0.03 0.03 96 1009.7
20260510124610 10 323 0.0 0.0 0.00 0.03 0.03 96 1009.8
20260510123055 10 348 0.0 0.0 0.00 0.03 0.03 96 1009.8
20260510121552 10 346 0.0 0.0 0.00 0.03 0.03 96 1009.8
20260510120051 10 23 0.0 0.0 0.00 0.03 0.03 96 1009.7
20260510114550 10 23 0.0 0.0 0.00 0.03 0.03 96 1009.7
20260510113051 10 51 0.0 0.0 0.00 0.03 0.03 96 1009.7
20260510111549 10 327 0.0 0.0 0.00 0.03 0.03 96 1009.8
20260510110048 10 209 0.0 0.0 0.00 0.03 0.03 96 1009.8
20260510104557 10 209 0.0 0.0 0.00 0.03 0.03 96 1009.7
20260510103046 10 165 0.0 0.0 0.00 0.03 0.03 96 1009.6
20260510101545 10 165 0.0 0.0 0.00 0.03 0.03 96 1009.5
20260510100044 10 165 0.0 0.0 0.00 0.03 0.03 96 1009.4
20260510094554 10 157 0.0 0.0 0.00 0.03 0.03 96 1009.6
20260510093055 10 157 0.0 0.0 0.00 0.03 0.03 96 1009.6
20260510091544 10 157 0.0 0.0 0.00 0.03 0.03 96 1009.7
20260510090038 10 207 0.0 0.0 0.00 0.03 0.03 96 1010.0
20260510084537 10 216 0.0 0.0 0.03 0.03 0.03 96 1009.9
20260510083035 11 184 0.0 0.0 0.03 0.03 0.03 96 1010.1
20260510081534 11 174 0.0 0.0 0.03 0.03 0.03 96 1010.0
20260510080038 11 174 0.0 0.0 0.03 0.03 0.03 96 1010.0
20260510074532 11 183 0.0 0.0 0.00 0.00 0.00 96 1010.1
20260510073040 11 205 0.0 0.0 0.00 0.00 0.00 96 1010.1
20260510071529 11 187 0.0 0.0 0.00 0.00 0.00 96 1010.2
20260510070030 11 196 0.0 0.0 0.00 0.00 0.00 96 1010.3
20260510064526 11 196 0.0 0.0 0.00 0.00 0.00 95 1010.4
20260510063026 11 196 0.0 0.0 0.00 0.00 0.00 95 1010.4
20260510061524 11 196 0.0 0.0 0.00 0.00 0.00 95 1010.3
20260510060026 11 196 0.0 0.0 0.00 0.00 0.00 95 1010.4
20260510054524 11 196 0.0 0.0 0.00 0.00 0.00 95 1010.5
20260510053045 11 196 0.0 0.0 0.00 0.00 0.00 95 1010.6
20260510051522 11 265 0.0 0.0 0.00 0.00 0.00 95 1010.6
20260510050121 11 227 0.0 0.0 0.00 0.00 0.00 94 1010.6
20260510044521 11 173 0.0 0.0 0.00 0.00 0.00 94 1010.6
20260510043037 11 350 0.0 0.0 0.00 0.00 0.00 94 1010.4
20260510041525 11 350 0.0 0.0 0.00 0.00 0.00 94 1010.3
20260510040033 11 254 0.0 0.0 0.00 0.00 0.00 93 1010.2
20260510034519 11 254 0.0 0.0 0.00 0.00 0.00 93 1010.2
20260510033019 12 227 0.0 0.0 0.00 0.00 0.00 93 1010.3
20260510031523 12 303 0.0 0.0 0.00 0.00 0.00 92 1010.2
20260510030018 12 17 0.0 0.0 0.00 0.00 0.00 92 1010.1
20260510024517 12 19 0.0 0.0 0.00 0.00 0.00 91 1010.2
20260510023016 12 355 0.0 0.0 0.00 0.00 0.00 91 1010.2
20260510021531 12 5 0.0 0.0 0.00 0.00 0.00 91 1010.2
20260510020014 12 319 0.0 0.0 0.00 0.00 0.00 90 1010.4
20260510014514 12 261 0.0 0.0 0.00 0.00 0.00 88 1010.4
20260510013022 13 306 0.0 0.0 0.00 0.00 0.00 86 1010.3
20260510011512 15 258 0.0 0.0 0.00 0.00 0.00 84 1010.5
20260510010011 15 197 0.0 0.0 0.00 0.00 0.00 81 1010.5
20260510004512 16 215 0.0 0.0 0.00 0.00 0.00 81 1010.5
20260510003009 16 5 0.0 0.0 0.00 0.00 0.00 78 1010.6
20260510001509 18 345 0.0 0.0 0.00 0.00 0.00 75 1010.6
20260510000005 18 208 0.0 0.0 0.00 0.00 0.00 78 1010.5
20260509234504 17 251 0.0 0.0 0.00 0.00 0.00 76 1010.6
20260509233103 18 273 0.0 0.0 0.00 0.00 0.00 75 1010.7
20260509231501 18 261 0.0 0.0 0.00 0.00 0.00 79 1010.7
20260509224600 18 275 0.0 0.0 0.00 0.00 0.00 77 1010.8
20260509223102 18 259 0.0 0.0 0.00 0.00 0.00 75 1010.9
20260509221556 17 211 0.0 0.0 0.00 0.00 0.00 79 1011.2
20260509220054 17 260 0.0 0.0 0.00 0.00 0.00 77 1011.2
20260509214619 18 265 0.0 0.0 0.00 0.00 0.00 77 1011.3
20260509213052 18 223 0.0 0.0 0.00 0.00 0.00 79 1011.4
20260509211551 18 252 0.0 0.0 0.00 0.00 0.00 77 1011.4
20260509210052 19 216 0.0 0.0 0.00 0.00 0.00 75 1011.4
20260509204548 19 191 0.0 0.0 0.00 0.00 0.00 75 1011.3
20260509203058 18 223 0.0 0.0 0.00 0.00 0.00 77 1011.3
20260509201544 18 286 0.0 0.0 0.00 0.00 0.00 77 1011.5
20260509200044 18 265 0.0 0.0 0.00 0.00 0.00 78 1011.5
20260509194544 18 176 0.0 0.0 0.00 0.00 0.00 78 1011.5
20260509193039 18 254 0.0 0.0 0.00 0.00 0.00 80 1011.7
20260509191553 18 201 0.0 0.0 0.00 0.00 0.00 80 1011.7
20260509190036 18 175 0.0 0.0 0.00 0.00 0.00 85 1011.8
20260509184543 17 234 0.0 0.0 0.00 0.00 0.00 88 1011.8
20260509183033 16 173 0.0 0.0 0.00 0.00 0.00 91 1011.9
20260509181523 15 232 0.0 0.0 0.00 0.00 0.00 92 1011.8
20260509180020 14 213 0.0 0.0 0.00 0.00 0.00 96 1011.9
20260509174522 13 202 0.0 0.0 0.00 0.00 0.00 97 1011.8
20260509173014 12 222 0.0 0.0 0.00 0.00 0.00 97 1011.9
20260509171513 12 202 0.0 0.0 0.00 0.00 0.00 97 1011.9
20260509170014 11 225 0.0 0.0 0.00 0.00 0.00 97 1012.0
20260509164509 11 171 0.0 0.0 0.00 0.00 0.00 97 1012.1
20260509163011 10 202 0.0 0.0 0.00 0.00 0.00 97 1012.1
20260509161505 10 194 0.0 0.0 0.00 0.00 0.00 97 1012.1
20260509160005 10 229 0.0 0.0 0.00 0.00 0.00 97 1012.1
20260509154503 10 195 0.0 0.0 0.00 0.00 0.00 97 1012.1
20260509153002 9 187 0.0 0.0 0.00 0.00 0.00 97 1012.0